User: anonymous   Login
Location: Valdosta
(30.8330°N, 83.2790°W)
Time: 18:11:50
(UTC-04:00)
Language:

Uribyol 2 - Orbit

View from above orbital plane
View from above orbital plane
View from above satellite
View from above satellite

Ground track
Ground track

The orbit data is extracted from the following two-line orbital elements,

1 22828U 93061F   16271.94951161  .00000031  00000-0  29067-4 0  9996
2 22828  98.7565 227.9072 0009619 344.1225  15.9654 14.30606002168444
Epoch (UTC): 27 September 2016 22:47:17
Eccentricity: 0.0009619
inclination: 98.7565°
perigee height: 783 km
apogee height: 796 km
right ascension of ascending node: 227.9072°
argument of perigee: 344.1225°
revolutions per day: 14.30606002
mean anomaly at epoch: 15.9654°
orbit number at epoch: 16844

The dashed part of the orbit path shows where the satellite is in the earth's shadow,  

DLR